Погода в Макати

Филиппины     14°34′07″N   121°01′41″E
темп.,
°C
ветер,
м/с
пор.,
м/с
влажн.,
%
обл.,
%
осадки,
мм/ч
давл.,
гПа
погр.,
м
24 июля, сб
сб2423:00+27зюз81283100 2.2 1004742
02:00+27зюз91386100 4.2 1003824
05:00+27зюз101487100 7.4 1003879
08:00+28юз101586100 10.9 10041047
11:00+28зюз101582100 2.8 10051186
14:00+28юз101583100 4.7 10041121
17:00+27зюз101486100 2.6 10041018
20:00+27зюз91488100 7.8 1006863
25 июля, вс
вс2523:00+27юз91489100 5.8 1007831
02:00+27юз91487100 9.4 1005886
05:00+27зюз101487100 2.6 1005881
08:00+27зюз101487100 6.3 1007959
11:00+28зюз101486100 3.1 10071030
14:00+28зюз111584100 5.7 10061140
17:00+28зюз101485100 2.1 10051110
20:00+27зюз91386100 4.4 1007896
26 июля, пн
пн2623:00+27зюз9148699 1.4 1007875
02:00+27зюз91485100 4.4 1005908
05:00+27зюз10148570 1.6 1004941
08:00+28зюз10138555 3.3 10051030
11:00+29зюз10138097 1.2 10051106
14:00+28зюз101482100 2.5 10031075
17:00+28зюз101385100 2.1 1003986
20:00+27зюз91386100 4.9 1004819
27 июля, вт
вт2723:00+27зюз91388100 3.4 1005795
02:00+27зюз101587100 4.3 1002932
05:00+27зюз101586100 0.6 10021010
08:00+28зюз111585100 2.7 10041099
11:00+29зюз111681100 1.8 10041267
14:00+28зюз101682100 3.8 10021200
17:00+28зюз101584100 2.1 10021076
20:00+27юз91486100 4.9 1004926
28 июля, ср
ср2823:00+27юз91488100 5.3 1005843
02:00+27юз91487100 11.3 1003858
05:00+27юз9148799 4.8 1004859
08:00+27юз91488100 6.6 1005901
11:00+28зюз101483100 1.4 10061035
14:00+28зюз91383100 3.1 10041016
17:00+28зюз91483100 1.3 1004951
20:00+27юз71382100 2.4 1006831